Weather History for Pittsfield, MA

Change the Weather History Date:

Sunday, May 26, 2013

  Actual Average Record
Temperature  
Mean Temperature 44 °F 58 °F  
Max Temperature 49 °F 69 °F 90 °F (1932)
Min Temperature 39 °F 46 °F 32 °F (1949)
Degree Days  
Heating Degree Days 21 8  
Month to date heating degree days 267 291  
Since 1 July heating degree days 6903 7326  
Cooling Degree Days 0 0  
Month to date cooling degree days 9 0  
Year to date cooling degree days 9 2  
Moisture  
Dew Point 40 °F    
Average Humidity 90    
Maximum Humidity 100    
Minimum Humidity 80    
Precipitation  
Precipitation 0.39 in 0.17 in 1.38 in (2001)
Month to date precipitation 5.16 3.40  
Year to date precipitation 13.05 16.23  
Sea Level Pressure  
Sea Level Pressure 29.96 in    
Wind  
Wind Speed 11 mph (WNW)    
Max Wind Speed 25 mph    
Max Gust Speed 33 mph    
Visibility 7 miles    
Events Rain    
T = Trace of Precipitation, MM = Missing Value Source: NWS Daily Summary

Daily Weather History Graph

Daily Weather History Graph

Search for Another Location

Airport:

Trip Planner

Search our weather history database for the weather conditions in past years. The results will help you decide how hot, cold, wet, or windy it might be!

Date:

Astronomy

May. 26, 2013 Rise Set
Actual Time 5:22 AM EDT 8:18 PM EDT
Civil Twilight 4:48 AM EDT 8:52 PM EDT
Nautical Twilight 4:06 AM EDT 9:35 PM EDT
Astronomical Twilight 3:16 AM EDT 10:25 PM EDT
Moon 10:03 PM EDT (5/26) 6:48 AM EDT (5/26)
Length of Visible Light 16h 03m
Length of Day
14h 56m
Waning Gibbous, 97% of the Moon is Illuminated
May 26
Waning Gibbous
May 31
Last Quarter
Jun 8
New
Jun 16
First Quarter
Jun 23
Full

Hourly Weather History & Observations

Time (EDT) Temp. Windchill Dew Point Humidity Pressure Visibility Wind Dir Wind Speed Gust Speed Precip Events Conditions
12:54 AM 39.9 °F 31.1 °F 37.0 °F 89% 29.84 in 8.0 mi NW 17.3 mph 24.2 mph 0.01 in Rain Light Rain
1:54 AM 39.9 °F 31.4 °F 37.0 °F 89% 29.83 in 6.0 mi NW 16.1 mph 23.0 mph 0.02 in Rain Light Rain
2:44 AM 39.2 °F 32.0 °F 35.6 °F 87% 29.83 in 6.0 mi NW 11.5 mph 21.9 mph 0.02 in Rain Light Rain
2:54 AM 39.9 °F 32.1 °F 36.0 °F 86% 29.83 in 6.0 mi NW 13.8 mph 25.3 mph 0.03 in Rain Light Rain
3:54 AM 39.9 °F 35.1 °F 37.0 °F 89% 29.82 in 10.0 mi Variable 6.9 mph 21.9 mph 0.01 in Rain Light Rain
4:15 AM 41.0 °F 34.7 °F 37.4 °F 87% 29.82 in 9.0 mi WNW 10.4 mph 21.9 mph 0.00 in Rain Light Rain
4:46 AM 41.0 °F 33.9 °F 37.4 °F 87% 29.82 in 10.0 mi NW 12.7 mph 20.7 mph 0.00 in   Overcast
4:54 AM 41.0 °F 33.5 °F 37.9 °F 89% 29.83 in 10.0 mi WNW 13.8 mph 20.7 mph 0.00 in   Overcast
5:25 AM 41.0 °F 33.9 °F 37.4 °F 87% 29.84 in 10.0 mi NW 12.7 mph 23.0 mph 0.00 in   Overcast
5:54 AM 41.0 °F 33.1 °F 37.9 °F 89% 29.85 in 10.0 mi NW 15.0 mph 20.7 mph 0.00 in   Overcast
6:54 AM 42.1 °F 34.5 °F 37.9 °F 85% 29.86 in 10.0 mi WNW 15.0 mph 21.9 mph 0.00 in Rain Light Rain
7:54 AM 43.0 °F 35.4 °F 39.0 °F 86% 29.88 in 10.0 mi WNW 16.1 mph 23.0 mph 0.01 in   Overcast
8:54 AM 44.1 °F 36.8 °F 39.9 °F 85% 29.89 in 5.0 mi WNW 16.1 mph 24.2 mph 0.00 in Rain Light Rain
9:54 AM 46.0 °F 39.9 °F 39.9 °F 79% 29.90 in 10.0 mi NW 13.8 mph 23.0 mph 0.01 in   Overcast
10:03 AM 46.4 °F 39.5 °F 39.2 °F 76% 29.91 in 5.0 mi NW 17.3 mph 23.0 mph 0.00 in Rain Light Rain
10:21 AM 44.6 °F 39.2 °F 41.0 °F 87% 29.91 in 9.0 mi WNW 10.4 mph - 0.01 in Rain Light Rain
10:47 AM 44.6 °F 38.8 °F 42.8 °F 93% 29.91 in 7.0 mi West 11.5 mph - 0.03 in Rain Light Rain
10:54 AM 44.1 °F 38.1 °F 41.0 °F 89% 29.91 in 2.0 mi WNW 11.5 mph - 0.06 in Rain Rain
11:10 AM 44.6 °F 38.8 °F 42.8 °F 93% 29.91 in 6.0 mi West 11.5 mph 20.7 mph 0.01 in Rain Light Rain
11:36 AM 46.4 °F 40.1 °F 41.0 °F 81% 29.92 in 5.0 mi WNW 15.0 mph 25.3 mph 0.02 in Rain Light Rain
11:54 AM 46.9 °F - 42.1 °F 83% 29.92 in 6.0 mi WNW 15.0 mph 27.6 mph 0.03 in Rain Light Rain
12:14 PM 46.4 °F 39.5 °F 41.0 °F 81% 29.93 in 7.0 mi West 17.3 mph 23.0 mph 0.01 in Rain Light Rain
12:23 PM 48.2 °F - 42.8 °F 82% 29.92 in 10.0 mi West 16.1 mph 21.9 mph 0.01 in Rain Light Rain
12:54 PM 46.9 °F - 42.1 °F 83% 29.94 in 6.0 mi West 15.0 mph 25.3 mph 0.02 in Rain Light Rain
1:54 PM 46.9 °F - 42.1 °F 83% 29.96 in 10.0 mi WNW 18.4 mph 31.1 mph 0.02 in Rain Light Rain
2:54 PM 48.0 °F - 44.1 °F 86% 29.97 in 8.0 mi WNW 11.5 mph - 0.01 in Rain Light Rain
3:03 PM 46.4 °F 41.1 °F 42.8 °F 87% 29.98 in 2.5 mi WNW 11.5 mph 18.4 mph 0.01 in Rain Light Rain
3:19 PM 48.2 °F - 42.8 °F 82% 29.98 in 6.0 mi WNW 10.4 mph - 0.03 in Rain Light Rain
3:38 PM 46.4 °F 39.8 °F 42.8 °F 87% 30.00 in 2.5 mi WNW 16.1 mph 28.8 mph 0.05 in Rain Light Rain
3:48 PM 46.4 °F 41.5 °F 42.8 °F 87% 30.00 in 3.0 mi WNW 10.4 mph 23.0 mph 0.07 in Rain Light Rain
3:54 PM 46.9 °F - 42.1 °F 83% 30.00 in 5.0 mi WNW 10.4 mph 20.7 mph 0.07 in Rain Light Rain
4:09 PM 46.4 °F 42.9 °F 42.8 °F 87% 30.01 in 2.5 mi WNW 6.9 mph 19.6 mph 0.02 in Rain Light Rain
4:17 PM 46.4 °F 41.9 °F 42.8 °F 87% 30.02 in 3.0 mi NW 9.2 mph - 0.04 in Rain Rain
4:22 PM 46.4 °F 41.5 °F 42.8 °F 87% 30.03 in 1.8 mi NW 10.4 mph - 0.06 in Rain Light Rain
4:34 PM 46.4 °F 42.9 °F 44.6 °F 93% 30.02 in 3.0 mi WNW 6.9 mph - 0.09 in Rain Light Rain
4:54 PM 46.9 °F - 44.1 °F 90% 30.02 in 7.0 mi West 11.5 mph - 0.09 in Rain Light Rain
5:02 PM 46.4 °F 40.1 °F 42.8 °F 87% 30.03 in 5.0 mi West 15.0 mph 20.7 mph 0.01 in Rain Light Rain
5:54 PM 46.9 °F - 42.1 °F 83% 30.05 in 10.0 mi West 11.5 mph - 0.01 in   Overcast
6:54 PM 48.0 °F - 42.1 °F 80% 30.06 in 10.0 mi WNW 5.8 mph - N/A   Overcast
7:54 PM 46.9 °F - 41.0 °F 80% 30.07 in 10.0 mi West 3.5 mph - N/A   Partly Cloudy
8:54 PM 43.0 °F 40.3 °F 39.9 °F 89% 30.08 in 10.0 mi WSW 4.6 mph - N/A   Scattered Clouds
9:54 PM 39.9 °F 36.7 °F 39.0 °F 97% 30.09 in 10.0 mi WSW 4.6 mph - N/A   Clear
10:16 PM 39.2 °F 37.0 °F 37.4 °F 93% 30.10 in 2.5 mi West 3.5 mph - N/A   Partly Cloudy
10:24 PM 39.2 °F 35.9 °F 37.4 °F 93% 30.10 in 1.5 mi West 4.6 mph - N/A   Partly Cloudy
10:27 PM 39.2 °F 37.0 °F 37.4 °F 93% 30.11 in 3.0 mi West 3.5 mph - N/A   Partly Cloudy
10:54 PM 39.0 °F 36.8 °F 37.9 °F 96% 30.11 in 3.0 mi WSW 3.5 mph - N/A   Clear
11:54 PM 39.0 °F 34.0 °F 37.9 °F 96% 30.12 in 10.0 mi WSW 6.9 mph - N/A   Clear